Flag for Canada Weather past 2 weeks in Brantford, Ontario, Canada

Now
61 °F

Mostly cloudy.


Feels Like: 61 °F
Forecast: 57 / 72 °F
Wind: 8 mph from West

Location: Hamilton Airport

Current Time: Jul 1, 2015 at 8:55:09 AM

Latest Report: Jul 1, 2015 at 8:00 AM


Visibility: 10 mi

Pressure: 29.76 "Hg

Humidity: 100%

Dew point: 61 °F

Location of BrantfordLocation

Historic Weather in Brantford — Graph

°F

Brantford temperature yesterday

Maximum temperature yesterday: 66 °F (at 3:00 PM)
Minimum temperature yesterday: 59 °F (at 1:00 AM)
Average temperature yesterday: 62 °F

Past Weeks' High & Low Weather Summary

 TemperatureHumidityPressure
High79 °F (Jun 16, 2:00 PM)100% (Jun 18, 11:00 PM)30.18 "Hg (Jun 18, 11:00 PM)
Low50 °F (Jun 28, 7:00 AM)34% (Jun 25, 4:00 PM)29.67 "Hg (Jun 23, 5:00 AM)
Average64 °F79%29.94 "Hg
* Reported Jun 16 8:00 AM — Jul 1 8:00 AM, Brantford, Weather by CustomWeather, © 2015

Note: Actual official high and low records may vary slightly from our data, if they occured in-between our weather recording intervals... More about our weather records

Advertising

Brantford weather history for previous 24 hours

 ConditionsComfort  
Time TempWeatherWind HumidityBarometerVisibility
8:00 AM
Wed, Jul 1
61 °FMostly cloudy.8 mph100%29.76 "Hg10 mi
7:00 AM61 °FMostly cloudy.7 mph100%29.75 "Hg12 mi
6:00 AM61 °FFog.10 mph100%29.74 "Hg2 mi
5:52 AM61 °FMostly cloudy.9 mph100%29.74 "Hg2 mi
5:00 AM61 °FFog.6 mph100%29.73 "Hg0 mi
4:00 AM61 °FFog.5 mph100%29.73 "Hg1 mi
3:00 AM61 °FFog.6 mph94%29.74 "Hg0 mi
2:00 AM61 °FFog.6 mph94%29.75 "Hg0 mi
1:00 AM61 °FFog.3 mph94%29.76 "Hg0 mi
12:00 AM59 °FFog.2 mph100%29.76 "Hg1 mi
11:00 PM
Tue, Jun 30
59 °FFog.2 mph100%29.77 "Hg1 mi
10:00 PM59 °FFog.5 mph100%29.78 "Hg1 mi
9:00 PM59 °FFog.7 mph100%29.76 "Hg1 mi
8:00 PM61 °FBroken clouds.8 mph94%29.77 "Hg7 mi
7:00 PM63 °FScattered clouds.8 mph88%29.76 "Hg12 mi
6:00 PM63 °FPartly sunny.8 mph94%29.76 "Hg12 mi
5:00 PM66 °FBroken clouds.7 mph83%29.77 "Hg12 mi
4:00 PM66 °FPartly sunny.7 mph88%29.77 "Hg8 mi
3:00 PM66 °FMostly cloudy.5 mph83%29.78 "Hg8 mi
2:00 PM64 °FMore clouds than sun.6 mph88%29.80 "Hg8 mi
1:00 PM63 °FMostly cloudy.6 mph88%29.81 "Hg12 mi
12:00 PM63 °FMostly cloudy.8 mph88%29.81 "Hg12 mi
11:00 AM63 °FCloudy.6 mph88%29.82 "Hg12 mi
10:00 AM63 °FMostly cloudy.10 mph94%29.83 "Hg10 mi
9:00 AM63 °FCloudy.9 mph88%29.83 "Hg15 mi
8:00 AM61 °FOvercast.8 mph94%29.83 "Hg15 mi
Weather by CustomWeather, © 2015

See weather overviewHow to use our weather pages